This is the latest recevied weather packets stored in our database for station/object W0AVQ. If no packets are shown the sender has not sent any weather packets the latest 10 day(s).
| Time | Temp. | Humidity | Pressure | Rain* | Wind** | Luminosity | Snow |
|---|---|---|---|---|---|---|---|
| 1777307709 | 25.56° C | 84% | 1010.3 hPa | 0 mm | - | 249 W/m² | - |
| 1777307404 | 25.56° C | 84% | 1010.4 hPa | 0 mm | - | 536 W/m² | - |
| 1777307102 | 25° C | 85% | 1010.7 hPa | 0 mm | - | 576 W/m² | - |
| 1777306799 | 25° C | 86% | 1010.9 hPa | 0 mm | - | 252 W/m² | - |
| 1777306496 | 25° C | 86% | 1011 hPa | 0 mm | - | 295 W/m² | - |
| 1777306192 | 24.44° C | 86% | 1010.9 hPa | 0 mm | - | 169 W/m² | - |
| 1777305887 | 24.44° C | 87% | 1011.1 hPa | 0 mm | - | 195 W/m² | - |
| 1777305583 | 24.44° C | 87% | 1011.2 hPa | 0 mm | - | 106 W/m² | - |
| 1777305280 | 24.44° C | 87% | 1011.1 hPa | 0 mm | - | 127 W/m² | - |
| 1777304978 | 24.44° C | 87% | 1010.9 hPa | 0 mm | - | 171 W/m² | - |
| 1777304675 | 24.44° C | 87% | 1011 hPa | 0 mm | - | 143 W/m² | - |
| 1777304372 | 24.44° C | 86% | 1010.9 hPa | 0 mm | - | 157 W/m² | - |
| 1777304070 | 24.44° C | 87% | 1010.9 hPa | 0 mm | - | 273 W/m² | - |
| 1777303766 | 23.89° C | 87% | 1011 hPa | 0 mm | - | 250 W/m² | - |
| 1777303463 | 23.89° C | 89% | 1011.2 hPa | 0 mm | - | 253 W/m² | - |
| 1777303161 | 23.33° C | 90% | 1011.2 hPa | 0 mm | - | 330 W/m² | - |
| 1777302860 | 22.78° C | 93% | 1011.4 hPa | 0 mm | - | 176 W/m² | - |
| 1777302556 | 22.78° C | 94% | 1011.3 hPa | 0 mm | - | 164 W/m² | - |
| 1777302254 | 22.22° C | 96% | 1011.2 hPa | 0 mm | - | 194 W/m² | - |
| 1777301951 | 21.67° C | 97% | 1011.3 hPa | 0 mm | - | 172 W/m² | - |
| 1777301649 | 21.67° C | 99% | 1011.1 hPa | 0 mm | - | 166 W/m² | - |
| 1777301346 | 21.11° C | 99% | 1010.9 hPa | 0 mm | - | 200 W/m² | - |
| 1777301042 | 20.56° C | 99% | 1010.6 hPa | 0 mm | - | 232 W/m² | - |
| 1777300740 | 20.56° C | 99% | 1011 hPa | 0 mm | - | 138 W/m² | - |
| 1777300437 | 20.56° C | 99% | 1011.1 hPa | 0 mm | - | 185 W/m² | - |
* Rain latest hour (hover to see other rain measurements)
** Current wind speed in m/s (hover to see current wind gust speed)